This demonstration page uses our WeatherBlox Daily Observations layout. Learn more.

Left ArrowRight Arrow

39.51506, -84.39828

Hourly Observations for January 4, 2021

Temp ( °F °C ) Dew Point ( °F °C ) Humidity (%) Winds ( mph kmh ) Pressure ( in mb ) Visibility ( mi km ) Precip ( " mm )
12:15 am 00:15 Cloudy 34 0.9 33 0.5 97 97 N N/A 30.09 1019 10 16.0934 N/A
12:35 am 00:35 Cloudy 34 0.9 33 0.4 97 97 N N/A 30.09 1019 10 16.0934 N/A
12:55 am 00:55 Cloudy 34 1 32 0.2 94 94 N N/A 30.08 1019 10 16.0934 N/A
1:15 am 01:15 Cloudy 34 1 32 0.2 94 94 N N/A 30.08 1019 10 16.0934 N/A
1:35 am 01:35 Cloudy 34 1.1 32 -0.2 91 91 SW 5 7 30.09 1019 10 16.0934 N/A
1:55 am 01:55 Cloudy 34 1.1 31 -0.3 91 91 WSW 3 6 30.09 1019 10 16.0934 N/A
2:15 am 02:15 Cloudy 34 1.2 31 -0.7 87 87 WSW 6 9 30.1 1019 10 16.0934 N/A
2:35 am 02:35 Cloudy 34 1.1 31 -0.7 88 88 WSW 5 7 30.1 1019 10 16.0934 N/A
2:55 am 02:55 Cloudy 34 1.2 29 -1.4 83 83 WSW 7 11 30.11 1020 10 16.0934 N/A
3:15 am 03:15 Cloudy 34 1.2 30 -1.3 84 84 WSW 5 7 30.11 1020 10 16.0934 N/A
3:35 am 03:35 Cloudy 34 1.1 30 -1.3 84 84 N N/A 30.11 1020 10 16.0934 N/A
3:55 am 03:55 Cloudy 34 1.3 29 -1.7 81 81 W 6 9 30.11 1020 10 16.0934 N/A
4:15 am 04:15 Cloudy 34 1 30 -1.1 86 86 WSW 5 7 30.11 1020 10 16.0934 N/A
4:35 am 04:35 Cloudy 34 1.1 31 -0.8 87 87 SW 5 7 30.11 1020 10 16.0934 N/A
4:55 am 04:55 Cloudy 34 0.9 31 -0.5 90 90 SW 3 6 30.11 1020 10 16.0934 N/A
5:15 am 05:15 Cloudy 34 0.9 31 -0.3 92 92 SW 5 7 30.11 1020 10 16.0934 N/A
5:35 am 05:35 Cloudy 34 0.9 32 -0.1 93 93 SW 3 6 30.12 1020 10 16.0934 N/A
5:55 am 05:55 Cloudy 34 0.9 32 undefined 94 94 WSW 5 7 30.13 1020 10 16.0934 N/A
6:15 am 06:15 Cloudy 33 0.8 32 0.1 95 95 N N/A 30.13 1020 10 16.0934 N/A
6:35 am 06:35 Cloudy with Light Snow 33 0.7 32 0.1 96 96 W 3 6 30.13 1020 5 8.0467 N/A
6:55 am 06:55 Cloudy with Drizzle 33 0.6 33 0.4 99 99 N N/A 30.13 1020 4 6.43736 N/A
7:15 am 07:15 Cloudy 33 0.6 33 0.3 98 98 N N/A 30.13 1020 10 16.0934 N/A
7:35 am 07:35 Partly Cloudy 33 0.4 32 0.2 99 99 N N/A 30.13 1020 7 11.26538 N/A
7:55 am 07:55 Partly Cloudy with Mist and Fog 32 0.2 32 0.1 99 99 N N/A 30.13 1020 5 8.0467 N/A
8:15 am 08:15 Cloudy with Mist and Fog 32 undefined 30 -1 93 93 N N/A 30.14 1020 2.5 4.02335 N/A
8:35 am 08:35 Cloudy with Haze 30 -1 N/A N/A N N/A 30.14 1021 4 6.43736 N/A
8:55 am 08:55 Cloudy with Mist and Fog 32 undefined N/A N/A N N/A 30.14 1020 4 6.43736 N/A
9:15 am 09:15 Cloudy with Mist and Fog 32 undefined N/A N/A N N/A 30.14 1020 4 6.43736 N/A
9:35 am 09:35 Mostly Cloudy with Haze 34 1 N/A N/A N N/A 30.13 1020 7 11.26538 N/A
9:55 am 09:55 Cloudy 34 1 33 0.4 96 96 N N/A 30.13 1020 10 16.0934 N/A
10:15 am 10:15 Cloudy 35 1.6 31 -0.4 87 87 N N/A 30.12 1020 10 16.0934 N/A
10:35 am 10:35 Cloudy 35 1.8 29 -1.6 78 78 N N/A 30.12 1020 10 16.0934 N/A
10:55 am 10:55 Cloudy 36 2 30 -1.3 79 79 SW 6 9 30.12 1020 10 16.0934 N/A
11:15 am 11:15 Cloudy 36 2.3 29 -1.7 75 75 N N/A 30.11 1020 10 16.0934 N/A
11:35 am 11:35 Cloudy 36 2.2 28 -2 74 74 WSW 8 13 30.1 1019 10 16.0934 N/A
11:55 am 11:55 Mostly Cloudy 36 2.4 28 -2.1 72 72 SW 9 15 30.09 1019 10 16.0934 N/A
12:15 pm 12:15 Cloudy 37 2.5 28 -2.1 72 72 SW 8 13 30.08 1019 10 16.0934 N/A
12:35 pm 12:35 Cloudy 37 2.9 29 -1.7 72 72 SW 7 11 30.06 1018 10 16.0934 N/A
12:55 pm 12:55 Cloudy 38 3.1 29 -1.7 71 71 S 7 11 30.05 1017 10 16.0934 N/A
1:15 pm 13:15 Cloudy 38 3.2 30 -1.3 73 73 WSW 8 13 30.05 1017 10 16.0934 N/A
1:35 pm 13:35 Cloudy 38 3.6 30 -1 72 72 SW 8 13 30.04 1017 10 16.0934 N/A
1:55 pm 13:55 Cloudy 39 3.7 31 -0.7 73 73 SW 10 17 30.04 1017 10 16.0934 N/A
2:15 pm 14:15 Cloudy 39 3.7 31 -0.8 73 73 WSW 8 13 30.03 1017 10 16.0934 N/A
2:35 pm 14:35 Cloudy 39 3.8 30 -0.9 72 72 WSW 7 11 30.02 1017 10 16.0934 N/A
2:55 pm 14:55 Cloudy 39 4.1 30 -0.9 70 70 WSW 6 9 30.02 1017 10 16.0934 N/A
3:15 pm 15:15 Cloudy 40 4.5 31 -0.4 71 71 SSW 8 13 30.02 1017 10 16.0934 N/A
3:35 pm 15:35 Mostly Cloudy 40 4.4 31 -0.6 70 70 SSW 6 9 30.02 1017 10 16.0934 N/A
3:55 pm 15:55 Mostly Cloudy 40 4.6 31 -0.7 69 69 N N/A 30.02 1017 10 16.0934 N/A
4:15 pm 16:15 Partly Cloudy 39 4.1 31 -0.5 72 72 SSW 7 11 30.02 1017 10 16.0934 N/A
4:35 pm 16:35 Sunny 40 4.7 31 -0.4 70 70 S 7 11 30.02 1017 10 16.0934 N/A
4:55 pm 16:55 Sunny 40 4.2 31 -0.5 72 72 SW 3 6 30.01 1016 10 16.0934 N/A
5:15 pm 17:15 Sunny 38 3.4 31 -0.6 75 75 N N/A 30.02 1016 10 16.0934 N/A
5:35 pm 17:35 Clear 37 2.9 30 -0.9 76 76 N N/A 30.02 1016 10 16.0934 N/A
5:55 pm 17:55 Clear 35 1.4 31 -0.5 87 87 N N/A 30.02 1017 10 16.0934 N/A
6:15 pm 18:15 Clear 33 0.3 31 -0.7 93 93 N N/A 30.02 1017 10 16.0934 N/A
6:35 pm 18:35 Clear 32 -0.2 30 -1.3 92 92 N N/A 30.03 1017 10 16.0934 N/A
6:55 pm 18:55 Clear 30 -1 29 -1.8 94 94 N N/A 30.03 1017 10 16.0934 N/A
7:15 pm 19:15 Clear 30 -1 29 -1.4 97 97 N 3 6 30.02 1017 10 16.0934 N/A
7:35 pm 19:35 Clear 29 -1.4 29 -1.7 98 98 N N/A 30.02 1017 10 16.0934 N/A
7:55 pm 19:55 Clear 29 -1.7 29 -1.9 99 99 N N/A 30.02 1017 10 16.0934 N/A
8:15 pm 20:15 Clear 28 -2.1 28 -2.4 98 98 N N/A 30.01 1016 7 11.26538 N/A
8:35 pm 20:35 Clear 29 -1.9 28 -2 99 99 N N/A 30.01 1016 10 16.0934 N/A
8:55 pm 20:55 Clear 28 -2.1 28 -2.2 99 99 N N/A 30.01 1016 10 16.0934 N/A
9:15 pm 21:15 Clear 28 -2 27 -3 93 93 N N/A 30 1016 7 11.26538 N/A
9:35 pm 21:35 Clear 27 -2.7 27 -2.9 99 99 N N/A 30 1016 10 16.0934 N/A
9:55 pm 21:55 Clear 28 -2.2 28 -2.4 99 99 N N/A 29.99 1016 10 16.0934 N/A
10:15 pm 22:15 Clear 29 -1.9 28 -2.1 99 99 N N/A 29.99 1016 10 16.0934 N/A
10:35 pm 22:35 Clear 28 -2.2 28 -2.3 99 99 N N/A 29.99 1016 7 11.26538 N/A
10:55 pm 22:55 Partly Cloudy 28 -2.1 28 -2.2 99 99 N N/A 29.98 1015 7 11.26538 N/A
11:15 pm 23:15 Partly Cloudy 28 -2.5 27 -2.6 99 99 N N/A 29.98 1015 7 11.26538 N/A
11:35 pm 23:35 Partly Cloudy 28 -2.2 28 -2.3 99 99 N N/A 29.97 1015 7 11.26538 N/A
11:55 pm 23:55 Mostly Cloudy 29 -1.6 29 -1.7 99 99 N N/A 29.97 1015 7 11.26538 N/A

Powered by AerisWeather